Weather History for Tucumcari, NM

Change the Weather History Date:

Saturday, June 22, 2013

  Actual Average Record
Temperature  
Mean Temperature 86 °F -  
Max Temperature 102 °F 94 °F 106 °F (1981)
Min Temperature 73 °F 61 °F 50 °F (1989)
Cooling Degree Days 22    
Growing Degree Days 36 (Base 50)    
Moisture  
Dew Point 39 °F    
Average Humidity 29    
Maximum Humidity 61    
Minimum Humidity 4    
Precipitation  
Precipitation 0.00 in - - ()
Sea Level Pressure  
Sea Level Pressure 29.67 in    
Wind  
Wind Speed 20 mph (SW)    
Max Wind Speed 29 mph    
Max Gust Speed 37 mph    
Visibility 10 miles    
Events      
Averages and records for this station are not official NWS values.
T = Trace of Precipitation, MM = Missing Value Source: NWS Daily Summary

Daily Weather History Graph

Daily Weather History Graph

Search for Another Location

Airport:

Trip Planner

Search our weather history database for the weather conditions in past years. The results will help you decide how hot, cold, wet, or windy it might be!

Date:

Astronomy

Jun. 22, 2013 Rise Set
Actual Time 5:40 AM MDT 8:12 PM MDT
Civil Twilight 5:10 AM MDT 8:42 PM MDT
Nautical Twilight 4:33 AM MDT 9:19 PM MDT
Astronomical Twilight 3:53 AM MDT 9:59 PM MDT
Moon 7:31 PM MDT (6/22) 4:53 AM MDT (6/22)
Length of Visible Light 15h 31m
Length of Day
14h 31m
Waxing Gibbous, 99% of the Moon is Illuminated
Jun 22
Waxing Gibbous
Jun 23
Full
Jun 29
Last Quarter
Jul 8
New
Jul 15
First Quarter

Hourly Weather History & Observations

Time (MDT) Temp. Heat Index Dew Point Humidity Pressure Visibility Wind Dir Wind Speed Gust Speed Precip Events Conditions
12:53 AM 75.9 °F - 60.1 °F 58% 29.72 in 9.0 mi South 28.8 mph 36.8 mph N/A   Clear
1:53 AM 75.9 °F - 59.0 °F 56% 29.70 in 10.0 mi South 21.9 mph 32.2 mph N/A   Clear
2:53 AM 75.9 °F - 57.9 °F 54% 29.69 in 10.0 mi SSW 21.9 mph 29.9 mph N/A   Clear
3:53 AM 75.0 °F - 57.9 °F 55% 29.69 in 10.0 mi SSW 23.0 mph 31.1 mph N/A   Clear
4:53 AM 73.9 °F - 59.0 °F 59% 29.70 in 10.0 mi SW 15.0 mph 26.5 mph N/A   Clear
5:53 AM 73.0 °F - 59.0 °F 61% 29.73 in 10.0 mi WSW 16.1 mph - N/A   Clear
6:53 AM 73.0 °F - 59.0 °F 61% 29.75 in 10.0 mi WSW 17.3 mph - N/A   Clear
7:53 AM 77.0 °F - 59.0 °F 54% 29.74 in 10.0 mi WSW 17.3 mph - N/A   Clear
8:53 AM 82.0 °F 82.0 °F 57.9 °F 44% 29.74 in 10.0 mi SW 17.3 mph - N/A   Clear
9:53 AM 86.0 °F 84.5 °F 55.0 °F 35% 29.73 in 10.0 mi West 11.5 mph - N/A   Clear
10:53 AM 93.0 °F - 42.1 °F 17% 29.72 in 10.0 mi West 17.3 mph 25.3 mph N/A   Clear
11:53 AM 96.1 °F - 25.0 °F 8% 29.70 in 10.0 mi West 19.6 mph 24.2 mph N/A   Clear
12:53 PM 98.1 °F - 19.9 °F 6% 29.68 in 10.0 mi WSW 17.3 mph 25.3 mph N/A   Clear
1:53 PM 100.0 °F - 10.0 °F 4% 29.65 in 10.0 mi WSW 12.7 mph 26.5 mph N/A   Clear
2:53 PM 100.9 °F - 15.1 °F 4% 29.62 in 10.0 mi WSW 25.3 mph 35.7 mph N/A   Clear
3:53 PM 100.0 °F - 17.1 °F 5% 29.61 in 10.0 mi SW 19.6 mph 29.9 mph N/A   Clear
4:53 PM 98.1 °F - 18.0 °F 6% 29.60 in 10.0 mi SSW 20.7 mph 29.9 mph N/A   Clear
5:53 PM 98.1 °F - 17.1 °F 5% 29.58 in 10.0 mi SW 21.9 mph 27.6 mph N/A   Clear
6:53 PM 96.1 °F - 21.0 °F 7% 29.58 in 10.0 mi SSW 23.0 mph 28.8 mph N/A   Clear
7:53 PM 91.9 °F - 23.0 °F 8% 29.59 in 10.0 mi SSW 12.7 mph - N/A   Clear
8:53 PM 87.1 °F - 26.1 °F 11% 29.60 in 10.0 mi SSW 8.1 mph - N/A   Clear
9:53 PM 86.0 °F - 26.1 °F 11% 29.62 in 10.0 mi SW 9.2 mph - N/A   Clear
10:53 PM 82.9 °F - 34.0 °F 17% 29.62 in 10.0 mi South 9.2 mph - N/A   Clear
11:53 PM 80.1 °F 79.9 °F 53.1 °F 39% 29.62 in 10.0 mi South 13.8 mph - N/A   Clear